| time (UTC) | temp F | wind direction | speed knots | gust knots | rain 1hr in | rain 24hr in | rain mn in | humidity % | barometer mb |
| 20260508100126 | 48 | 0 | 0.0 | 0.0 | 0.00 | 0.45 | 0.00 | 96 | 991.6 |
| 20260508094624 | 48 | 0 | 0.0 | 0.0 | 0.00 | 0.45 | 0.00 | 96 | 991.5 |
| 20260508093125 | 49 | 0 | 0.0 | 0.0 | 0.00 | 0.46 | 0.00 | 96 | 991.6 |
| 20260508091620 | 49 | 0 | 0.0 | 0.0 | 0.00 | 0.46 | 0.00 | 96 | 991.4 |
| 20260508083111 | 50 | 0 | 0.0 | 0.0 | 0.00 | 0.47 | 0.00 | 96 | 990.7 |
| 20260508081609 | 50 | 0 | 0.0 | 0.0 | 0.00 | 0.47 | 0.00 | 96 | 990.7 |
| 20260508074608 | 51 | 0 | 0.0 | 0.0 | 0.00 | 0.48 | 0.00 | 96 | 990.5 |
| 20260508073108 | 51 | 0 | 0.0 | 0.0 | 0.00 | 0.48 | 0.00 | 96 | 990.2 |
| 20260508071605 | 51 | 0 | 0.0 | 0.0 | 0.00 | 0.48 | 0.00 | 96 | 990.0 |
| 20260508064601 | 51 | 0 | 0.0 | 0.0 | 0.00 | 0.48 | 0.00 | 96 | 990.0 |
| 20260508063059 | 51 | 0 | 0.0 | 0.0 | 0.00 | 0.49 | 0.00 | 96 | 990.0 |
| 20260508061557 | 51 | 0 | 0.0 | 0.0 | 0.00 | 0.49 | 0.00 | 96 | 990.1 |
| 20260508060057 | 51 | 0 | 0.0 | 0.0 | 0.00 | 0.49 | 0.00 | 96 | 990.0 |
| 20260508054558 | 50 | 0 | 0.0 | 0.0 | 0.00 | 0.49 | 0.00 | 96 | 990.2 |
| 20260508051558 | 51 | 0 | 0.0 | 0.0 | 0.00 | 0.50 | 0.00 | 96 | 990.3 |
| 20260508050050 | 51 | 0 | 0.0 | 0.0 | 0.00 | 0.50 | 0.00 | 96 | 990.0 |
| 20260508044547 | 51 | 0 | 0.0 | 0.0 | 0.00 | 0.51 | 0.00 | 96 | 990.0 |
| 20260508043047 | 51 | 0 | 0.0 | 0.0 | 0.00 | 0.51 | 0.00 | 96 | 989.8 |
| 20260508041546 | 52 | 0 | 0.0 | 0.0 | 0.00 | 0.52 | 0.00 | 96 | 989.8 |
| 20260508033043 | 52 | 0 | 0.0 | 0.0 | 0.00 | 0.54 | 0.53 | 96 | 989.3 |
| 20260508031543 | 53 | 0 | 0.0 | 0.0 | 0.00 | 0.54 | 0.53 | 96 | 989.5 |
| 20260508030040 | 53 | 0 | 0.0 | 0.0 | 0.00 | 0.54 | 0.53 | 96 | 989.5 |
| 20260508024535 | 53 | 0 | 0.0 | 0.0 | 0.00 | 0.55 | 0.53 | 96 | 989.1 |
| 20260508021531 | 53 | 0 | 0.0 | 0.0 | 0.00 | 0.55 | 0.53 | 96 | 988.9 |
| 20260508020030 | 53 | 0 | 0.0 | 0.0 | 0.00 | 0.55 | 0.53 | 96 | 988.9 |
| 20260508014529 | 53 | 0 | 0.0 | 0.0 | 0.00 | 0.55 | 0.53 | 96 | 988.5 |
| 20260508013024 | 53 | 0 | 0.0 | 0.0 | 0.00 | 0.55 | 0.53 | 96 | 988.2 |
| 20260508011522 | 54 | 0 | 0.0 | 0.0 | 0.00 | 0.55 | 0.53 | 96 | 988.1 |
| 20260508010020 | 54 | 0 | 0.0 | 0.0 | 0.00 | 0.55 | 0.53 | 96 | 988.1 |
| 20260508004519 | 54 | 0 | 0.0 | 0.0 | 0.00 | 0.55 | 0.53 | 96 | 988.0 |
| 20260508003018 | 54 | 0 | 0.0 | 0.0 | 0.00 | 0.55 | 0.53 | 96 | 987.9 |
| 20260508001516 | 54 | 0 | 0.0 | 0.0 | 0.00 | 0.55 | 0.53 | 96 | 987.7 |
| 20260508000015 | 54 | 0 | 0.0 | 0.0 | 0.00 | 0.55 | 0.53 | 96 | 987.6 |
| 20260507234514 | 55 | 0 | 0.0 | 0.0 | 0.00 | 0.55 | 0.53 | 96 | 987.2 |
| 20260507231513 | 55 | 0 | 0.0 | 0.0 | 0.00 | 0.55 | 0.53 | 96 | 986.8 |
| 20260507230010 | 55 | 0 | 0.0 | 0.0 | 0.00 | 0.55 | 0.53 | 96 | 986.9 |
| 20260507224508 | 56 | 0 | 0.0 | 0.0 | 0.00 | 0.55 | 0.53 | 96 | 986.6 |
| 20260507223006 | 56 | 0 | 0.0 | 0.0 | 0.00 | 0.55 | 0.53 | 96 | 986.4 |
| 20260507214501 | 56 | 0 | 0.0 | 0.0 | 0.00 | 0.55 | 0.53 | 96 | 986.6 |
| 20260507213000 | 56 | 0 | 0.0 | 0.0 | 0.00 | 0.55 | 0.53 | 96 | 986.6 |
| 20260507211500 | 56 | 0 | 0.0 | 0.0 | 0.00 | 0.55 | 0.53 | 96 | 986.7 |
| 20260507205956 | 56 | 0 | 0.0 | 0.0 | 0.00 | 0.55 | 0.53 | 95 | 986.3 |
| 20260507204455 | 56 | 0 | 0.0 | 0.0 | 0.00 | 0.55 | 0.53 | 96 | 986.3 |
| 20260507202955 | 56 | 0 | 0.0 | 0.0 | 0.00 | 0.55 | 0.53 | 96 | 986.1 |
| 20260507201456 | 56 | 0 | 0.0 | 0.0 | 0.01 | 0.55 | 0.53 | 95 | 986.2 |
| 20260507195955 | 57 | 0 | 0.0 | 0.0 | 0.02 | 0.55 | 0.53 | 96 | 986.1 |
| 20260507194450 | 57 | 0 | 0.0 | 0.0 | 0.04 | 0.55 | 0.53 | 95 | 986.3 |
| 20260507192950 | 57 | 0 | 0.0 | 0.0 | 0.05 | 0.55 | 0.53 | 95 | 986.2 |
| 20260507191450 | 57 | 0 | 0.0 | 0.0 | 0.06 | 0.54 | 0.52 | 95 | 986.4 |
| 20260507185947 | 57 | 0 | 0.0 | 0.0 | 0.07 | 0.53 | 0.51 | 95 | 986.3 |
| 20260507184445 | 57 | 0 | 0.0 | 0.0 | 0.06 | 0.51 | 0.49 | 96 | 986.1 |
| 20260507182944 | 57 | 0 | 0.0 | 0.0 | 0.07 | 0.50 | 0.48 | 95 | 986.3 |
| 20260507181442 | 57 | 0 | 0.0 | 0.0 | 0.08 | 0.48 | 0.46 | 95 | 986.2 |
| 20260507174439 | 57 | 0 | 0.0 | 0.0 | 0.08 | 0.45 | 0.43 | 96 | 986.0 |
| 20260507171435 | 57 | 0 | 0.0 | 0.0 | 0.06 | 0.40 | 0.38 | 96 | 985.8 |
| 20260507165934 | 58 | 0 | 0.0 | 0.0 | 0.06 | 0.39 | 0.37 | 95 | 985.7 |
| 20260507164434 | 58 | 0 | 0.0 | 0.0 | 0.05 | 0.37 | 0.36 | 95 | 985.6 |
| 20260507161429 | 63 | 0 | 0.0 | 0.0 | 0.04 | 0.34 | 0.32 | 95 | 986.0 |
| 20260507155925 | 66 | 0 | 0.0 | 0.0 | 0.04 | 0.33 | 0.31 | 96 | 986.4 |
| 20260507154425 | 66 | 0 | 0.0 | 0.0 | 0.04 | 0.32 | 0.30 | 96 | 986.5 |
| 20260507152923 | 66 | 0 | 0.0 | 0.0 | 0.04 | 0.31 | 0.29 | 96 | 985.9 |
| 20260507151422 | 66 | 0 | 0.0 | 0.0 | 0.04 | 0.30 | 0.28 | 96 | 985.8 |
| 20260507145922 | 66 | 0 | 0.0 | 0.0 | 0.04 | 0.29 | 0.27 | 96 | 986.1 |
| 20260507144421 | 66 | 0 | 0.0 | 0.0 | 0.04 | 0.28 | 0.26 | 96 | 985.8 |
| 20260507142919 | 66 | 0 | 0.0 | 0.0 | 0.05 | 0.27 | 0.25 | 96 | 985.8 |
| 20260507141417 | 66 | 0 | 0.0 | 0.0 | 0.05 | 0.26 | 0.24 | 96 | 985.6 |
| 20260507134411 | 65 | 0 | 0.0 | 0.0 | 0.05 | 0.24 | 0.22 | 95 | 986.3 |
| 20260507131406 | 65 | 0 | 0.0 | 0.0 | 0.04 | 0.21 | 0.19 | 95 | 986.8 |
| 20260507125907 | 65 | 0 | 0.0 | 0.0 | 0.03 | 0.20 | 0.18 | 95 | 986.4 |
| 20260507121405 | 65 | 0 | 0.0 | 0.0 | 0.03 | 0.17 | 0.15 | 95 | 986.4 |
| 20260507115904 | 65 | 0 | 0.0 | 0.0 | 0.04 | 0.17 | 0.15 | 95 | 986.3 |
| 20260507114401 | 64 | 0 | 0.0 | 0.0 | 0.04 | 0.16 | 0.14 | 95 | 986.4 |
| 20260507112856 | 64 | 0 | 0.0 | 0.0 | 0.03 | 0.15 | 0.13 | 95 | 986.8 |
| 20260507111356 | 64 | 0 | 0.0 | 0.0 | 0.03 | 0.14 | 0.12 | 95 | 986.7 |
| 20260507105856 | 64 | 0 | 0.0 | 0.0 | 0.03 | 0.13 | 0.11 | 95 | 986.6 |
| 20260507104356 | 64 | 0 | 0.0 | 0.0 | 0.02 | 0.12 | 0.10 | 95 | 986.4 |